www.pogodaiklimat.ru

Погода и климат >> Архив погоды >> Россия >> Нижегородская область >> Воскресенское


ПОГОДА в Воскресенском

  • Прогноз погоды в Воскресенском
  • Монитор погоды в Воскресенском

АРХИВ ПОГОДЫ в Воскресенском

Время (UTC), дата Ветер
(напр.,м/с)
 
Видим.   Явления Облачность Т
(С)
Тd
(С)
f
(%)
Тe
(С)
Тes
(С)
Комфортность P
(гПа)
Po
(гПа)
Тmin
(С)
Tmax
(С)
R
(мм)
R24
(мм)
S
(см)
18 17.08 СВ 1-2
{3}
10 км дождь 10/0
[As op]
+16.8 +16.6 99 +18 +18 1016.6 1006.2
21 17.08 В 2-4
{4}
10 км слаб. дождь 10/0
[As op]
+16.9 +16.5 97 +17 +17 1015.6 1005.3
00 18.08 СВ 2-2
{4}
10 км слаб. дождь 10/0
[As op]
+17.2 +16.2 94 +18 +18 1015.8 1005.4
03 18.08 СВ 2-3
{5}
10 км слаб. дождь 10/0
[As op]
+17.1 +16.9 99 +17 +17 1014.6 1004.3 +16.7 11
06 18.08 СВ 2-5
{6}
10 км {дождь} 10/10 300 м
[St]
+17.4 +17.1 98 +18 +18 1014.0 1003.7
09 18.08 В 3-6
{6}
20 км 10/10 600 м
[Sc]
+20.1 +18.8 92 +24 +24 комфорт 1013.4 1003.2
12 18.08 ЮВ 2-4
{7}
20 км 10/0
[Ac und]
+22.9 +19.6 82 +29 +31 очень
душно
1013.1 1003.0
15 18.08 СВ 1-2
{5}
10 км 10/0
[Ac As Cs]
+23.1 +21.0 88 +31 +31 очень
душно
1013.2 1003.1 +23.9 0.3
18 18.08 штиль 0
{2}
2000 м дымка 10/0
[Ac lent Cs]
+19.5 +19.0 97 +22 +22 комфорт 1014.0 1003.8
21 18.08 штиль 0 200 м туман ?/? +16.6 +16.6 100 +16 +16 1014.3 1003.9
00 19.08 ЮЗ 2-3
{5}
2000 м в посл. час туман 10/10 600 м
[Cb cap]
+18.6 +18.1 97 +20 +20 1015.2 1004.9
03 19.08 Ю 1-2
{5}
10 км {ливн. осадки} 10/6 600 м
[Cb cap Ac As]
+18.2 +18.1 99 +20 +20 1015.4 1005.1 +16.4 3
06 19.08 Ю 2-4
{5}
20 км {ливн. осадки} 10/0
[Ac cast Cc]
+21.6 +18.3 82 +26 +29 душно 1016.0 1005.9
09 19.08 ЮЗ 2-5
{6}
20 км 10/10 600 м
[Cb cap]
+22.4 +19.0 81 +28 +28 душно 1015.8 1005.7
12 19.08 ЮЗ 2-5
{6}
20 км 6/3 600 м
[Cb cap Cs]
+24.4 +19.2 73 +29 +34 душно 1015.4 1005.3
15 19.08 СЗ 1-3
{6}
20 км 10/3 600 м
[Cb cap Ac cast Cs]
+22.5 +18.1 76 +28 +28 душно 1016.4 1006.3 +24.8 0.0
18 19.08 штиль 0-1
{4}
10 км 9/0
[Ac cast]
+17.5 +15.9 90 +17 +17 1018.0 1007.7
21 19.08 З 1-2
{2}
10 км 10/10 1000 м
[Sc]
+17.3 +15.6 90 +18 +18 1018.3 1008.0
00 20.08 штиль 0-1
{4}
10 км 1/0
[Ac lent]
+15.6 +14.9 96 +15 +15 1019.0 1008.6
03 20.08 штиль 0-1
{2}
20 км ясно +15.5 +15.0 97 +15 +16 1019.9 1009.5 +14.8
06 20.08 СЗ 1-2
{3}
20 км 5/5 1000 м
[Cu hum]
+21.6 +17.2 76 +26 +30 душно 1020.7 1010.5
09 20.08 З 2-5
{6}
20 км 5/5 1000 м
[Cu hum]
+24.8 +14.8 54 +28 +33 жарко 1021.5 1011.4
12 20.08 СЗ 3-5
{6}
20 км 4/4 1000 м
[Cu hum]
+25.3 +14.2 50 +28 +31 жарко 1021.4 1011.3
15 20.08 СЗ 1-2
{5}
20 км 3/3 1500 м
[Cu hum]
+25.0 +14.7 53 +28 +28 жарко 1021.4 1011.3 +25.9
18 20.08 штиль 0
{2}
20 км 4/0
[Cc]
+18.1 +16.4 90 +18 +18 1022.0 1011.7
21 20.08 штиль 0
{1}
20 км 3/0
[Ci]
+15.3 +15.0 98 +15 +15 1022.6 1012.2
00 21.08 штиль 0
{1}
20 км 3/0
[Ci]
+12.1 +11.9 99 +11 +11 1022.8 1012.2
03 21.08 штиль 0
{1}
20 км дымка 8/0
[Ci]
+13.0 +12.6 97 +12 +13 1023.7 1013.1 +11.6
06 21.08 ЮЗ 1-3
{3}
20 км 3/0
[Ci fib]
+23.2 +17.4 70 +29 +36 душно 1022.9 1012.7
09 21.08 ЮЗ 2-5
{5}
20 км 10/3 600 м
[Cu med, cong Ci fib]
+26.4 +17.9 60 +31 +37 душно 1022.3 1012.2
12 21.08 СЗ 2-4
{6}
20 км 10/5 600 м
[Cu med, cong Ci fib]
+27.2 +17.7 56 +31 +34 душно 1021.9 1011.9
15 21.08 СЗ 2-5
{8}
20 км 10/3 600 м
[Cu med, cong Ci fib]
+24.1 +19.0 73 +29 +29 душно 1022.7 1012.5 +27.7
18 21.08 З 1-1
{4}
20 км 10/0
[Ci fib]
+18.2 +17.4 95 +20 +20 1023.3 1012.9
21 21.08 З 1-1
{2}
20 км 10/0
[Ci fib]
+16.6 +16.1 97 +17 +17 1023.4 1012.9
00 22.08 штиль 0
{1}
20 км ясно +13.6 +13.0 96 +13 +13 1022.7 1012.2
03 22.08 штиль 0
{1}
10 км дымка ясно +13.3 +12.7 96 +13 +14 1022.8 1012.2 +12.1
06 22.08 ЮЗ 1-2
{2}
20 км 1/1 1000 м
[Cu hum]
+22.5 +18.4 78 +28 +35 душно 1021.8 1011.6
09 22.08 Ю 2-4
{6}
20 км 4/4 1000 м
[Cu hum]
+25.9 +16.9 58 +30 +36 душно 1020.3 1010.2
12 22.08 З 2-5
{6}
20 км 3/3 1000 м
[Cu med, cong]
+27.7 +18.1 56 +32 +37 очень
душно
1018.8 1008.8
15 22.08 ЮЗ 1-3
{6}
20 км 10/3 600 м
[Cb cap Cs]
+26.1 +19.6 67 +32 +32 очень
душно
1017.3 1007.3 +28.2
18 22.08 З 1-2
{9}
20 км в посл. час ливневой дождь 10/6 600 м
[Cb cap Ac As]
+19.3 +18.2 93 +22 +22 комфорт 1019.6 1009.3
21 22.08 З 1-3
{9}
10 км в посл. час гроза {ливн. осадки} 8/0
[Ac lent]
+15.4 +14.9 97 +16 +16 1021.3 1010.9
00 23.08 З 1-2
{5}
10 км {гроза, ливн. осадки} 10/0
[Cs]
+13.4 +12.8 96 +13 +13 1022.9 1012.3
03 23.08 З 1-2
{2}
20 км 1/0
[Ci fib]
+12.6 +12.2 97 +12 +13 1024.3 1013.7 +12.0 7
06 23.08 СЗ 2-5
{5}
20 км 3/1 1000 м
[Cu hum Ci fib]
+16.9 +12.2 74 +17 +23 1025.2 1014.7
09 23.08 СЗ 2-7
{7}
20 км 6/6 1000 м
[Cu hum]
+19.8 +11.1 57 +22 +26 комфорт 1025.4 1015.1
12 23.08 С 2-5
{7}
20 км 6/5 1000 м
[Cu hum Ci fib]
+21.5 +10.2 49 +23 +26 комфорт 1025.2 1014.9
15 23.08 СЗ 1-2
{8}
20 км 3/3 1000 м
[Sc diur, vesp Ci fib]
+19.7 +12.0 61 +22 +23 комфорт 1025.0 1014.7 +21.8
18 23.08 штиль 0-1
{2}
20 км 3/0
[Ci fib]
+13.7 +12.6 93 +13 +13 1025.4 1014.9
21 23.08 З 1-1
{1}
20 км ясно +11.4 +10.9 97 +11 +11 1025.7 1015.0
00 24.08 ЮЗ 1-1
{1}
10 км ясно +9.3 +9.0 98 +9 +9 1025.6 1014.8
03 24.08 Ю 1-1
{2}
8000 м дымка 4/0
[Cs]
+8.5 +8.2 98 +8 +8 1025.6 1014.8 +7.7
06 24.08 ЮЗ 2-4
{4}
20 км 8/0
[Cc]
+18.3 +12.8 70 +19 +24 1025.2 1014.8
09 24.08 З 2-4
{5}
20 км 10/6 600 м
[Cb cap Ci]
+21.3 +12.5 57 +24 +27 комфорт 1023.6 1013.3
12 24.08 З 2-6
{8}
20 км 10/8 1000 м
[Cu hum Ci]
+21.5 +10.4 49 +23 +24 комфорт 1021.4 1011.1
15 24.08 ЮЗ 2-3
{6}
20 км 10/0
[Ac lent Ci]
+19.8 +13.1 65 +22 +22 комфорт 1019.2 1008.9 +22.7

 

Местоположение метеостанции Воскресенское (Нижегородская область, Россия): широта 56.81 долгота 45.43 высота над уровнем моря 87 м.

В архиве по умолчанию представлена погода в Воскресенском за последнюю неделю. Архивные данные за месяц целиком и за предыдущие месяцы, начиная с января 2011 года, Вы можете получить, выбрав интересующий диапазон дат из раскрывающегося списка и нажав кнопку "Ввод!".


*Определитесь, кто Вы:
робот инопланетянин человек

Внимание! Время в таблицах - всемирное. Для получения местного времени необходимо прибавить поправку, которая равна 3 ч.

Смотрите также архив погоды в соседних городах и на ближайших метеорологических станциях:

Погода в Красных Баках (Нижегородская область, Россия) (39 км)
Погода в Семенове (Нижегородская область, Россия) (56 км)
Погода в Козьмодемьянске (Марий-Эл, Россия) (88 км)
Погода в Лысково (Нижегородская область, Россия) (92 км)
Погода в Нижнем Новгороде (Нижегородская область, Россия) (106 км)
Погода в Санчурске (Кировская область, Россия) (116 км)
Погода в Ветлуге (Нижегородская область, Россия) (117 км)
Погода в Шахунье (Нижегородская область, Россия) (119 км)
Погода в Нижнем Новгороде аэропорт (Нижегородская область, Россия) (121 км)
Погода в Волжской ГМО (Нижегородская область, Россия) (123 км)

Пояснения к столбцам:

Ветер - указаны скорость ветра в м/с - средняя за 10 мин, порывы в срок и между сроками (в фигурных скобках) и направление, откуда дует ветер: С - северный, СВ - северо-восточный, В - восточный, ЮВ - юго-восточный, Ю - южный, ЮЗ - юго-западный, З - западный, СЗ - северо-западный.
Видимость - горизонтальная дальность видимости в метрах или километрах. При видимости от 1 до 10 км при отсутствии осадков обычно наблюдается дымка, при ухудшении видимости до 1 км и менее - туман. В сухую погоду видимость может ухудшаться дымом, пылью или мглою.
Явления - указаны атмосферные явления, наблюдавшиеся в срок или в последний час перед сроком; фигурными скобками обозначены явления, наблюдавшиеся между сроками (за 1-3 часа до срока); квадратными скобками обозначены град или гололедные отложения с указанием их диаметра в мм.
Облачность - указаны через наклонную черту общая и нижняя облачность в баллах и высота нижней границы облаков в метрах; квадратными скобками обозначены формы облаков: Ci - перистые, Cs - перисто-слоистые, Cc - перисто-кучевые, Ac - высококучевые, As - высокослоистые, Sc - слоисто-кучевые, Ns - слоисто-дождевые, Cu - кучевые, Cb - кучево-дождевые. Подробнее классификацию облаков см. в Атласе облаков (PDF).
T - Температура воздуха - температура, измеренная на высоте 2 м над землей.
Td - Температура точки росы - температура, при понижении до которой содержащийся в воздухе водяной пар достигнет насыщения.
f - Относительная влажность воздуха - влажноcть воздуха, измеренная на высоте 2 м над землей.
Te - Эффективная температура - температура, которую ощущает одетый по сезону человек в тени. Характеристика душности погоды. При расчете учитывается влияние влажности воздуха и скорости ветра на теплоощущения человека.
Tes - Эффективная температура на солнце - температура, которую ощущает человек, с поправкой на солнечный нагрев. Характеристика знойности погоды. Зависит от высоты солнца над горизонтом, облачности и скорости ветра. Ночью, в пасмурную погоду, а также при ветре 12 м/с и более поправка равна нулю.
P - Атмосферное давление - приведенное к уровню моря атмосферное давление.
Po - Атмосферное давление - измеренное на уровне метеостанции атмосферное давление.
Tmin - Минимальная температура - минимум температуры воздуха на высоте 2 м над землей.
Tmax - Максимальная температура - максимум температуры воздуха на высоте 2 м над землей.
R - Количество осадков - Количество выпавших осадков за период времени, мм. При наведении курсора мыши на число - период времени, за который выпало указанное количество осадков.
R24 - Количество осадков - Количество выпавших осадков за 24 часа, мм.
S - Снежный покров - Высота снежного покрова, см. При наведении курсора мыши на число - состояние снежного покрова и степень покрытия местности в баллах.